| time (UTC) | temp F | wind direction | speed MPH | gust MPH | rain 1hr in | rain 24hr in | rain mn in | humidity % | barometer mb |
| 20260505201030 | 78 | 216 | 4.0 | 10.0 | 0.00 | 0.00 | 0.00 | 43 | 1002.8 |
| 20260505200529 | 78 | 200 | 4.0 | 11.0 | 0.00 | 0.00 | 0.00 | 42 | 1002.8 |
| 20260505200029 | 78 | 188 | 4.0 | 11.0 | 0.00 | 0.00 | 0.00 | 42 | 1002.8 |
| 20260505195528 | 78 | 198 | 5.0 | 10.0 | 0.00 | 0.00 | 0.00 | 43 | 1003.0 |
| 20260505195027 | 78 | 239 | 3.0 | 10.0 | 0.00 | 0.00 | 0.00 | 43 | 1003.0 |
| 20260505194527 | 79 | 241 | 4.0 | 12.0 | 0.00 | 0.00 | 0.00 | 43 | 1003.1 |
| 20260505194029 | 79 | 162 | 3.0 | 14.0 | 0.00 | 0.00 | 0.00 | 41 | 1003.2 |
| 20260505193525 | 80 | 150 | 7.0 | 14.0 | 0.00 | 0.00 | 0.00 | 41 | 1003.2 |
| 20260505193034 | 80 | 141 | 8.0 | 13.0 | 0.00 | 0.00 | 0.00 | 40 | 1003.1 |
| 20260505192524 | 81 | 47 | 6.0 | 15.0 | 0.00 | 0.00 | 0.00 | 40 | 1003.1 |
| 20260505192025 | 82 | 227 | 5.0 | 18.0 | 0.00 | 0.00 | 0.00 | 40 | 1003.2 |
| 20260505191524 | 82 | 207 | 3.0 | 11.0 | 0.00 | 0.00 | 0.00 | 40 | 1003.1 |
| 20260505191024 | 83 | 205 | 4.0 | 12.0 | 0.00 | 0.00 | 0.00 | 37 | 1003.2 |
| 20260505190526 | 83 | 225 | 6.0 | 12.0 | 0.00 | 0.00 | 0.00 | 36 | 1003.4 |
| 20260505190022 | 85 | 191 | 7.0 | 10.0 | 0.00 | 0.00 | 0.00 | 32 | 1003.5 |
| 20260505185521 | 84 | 248 | 5.0 | 19.0 | 0.00 | 0.00 | 0.00 | 35 | 1003.5 |
| 20260505185022 | 82 | 260 | 7.0 | 19.0 | 0.00 | 0.00 | 0.00 | 33 | 1003.6 |
| 20260505184519 | 82 | 187 | 4.0 | 14.0 | 0.00 | 0.00 | 0.00 | 35 | 1003.8 |
| 20260505184019 | 83 | 222 | 8.0 | 14.0 | 0.00 | 0.00 | 0.00 | 33 | 1003.8 |
| 20260505183518 | 83 | 225 | 7.0 | 15.0 | 0.00 | 0.00 | 0.00 | 34 | 1003.9 |
| 20260505183022 | 83 | 257 | 7.0 | 15.0 | 0.00 | 0.00 | 0.00 | 34 | 1003.9 |
| 20260505182516 | 83 | 190 | 5.0 | 11.0 | 0.00 | 0.00 | 0.00 | 34 | 1004.1 |
| 20260505182014 | 84 | 208 | 4.0 | 13.0 | 0.00 | 0.00 | 0.00 | 33 | 1004.1 |
| 20260505181514 | 82 | 247 | 5.0 | 16.0 | 0.00 | 0.00 | 0.00 | 35 | 1004.2 |
| 20260505181018 | 82 | 248 | 7.0 | 23.0 | 0.00 | 0.00 | 0.00 | 34 | 1004.2 |
| 20260505180512 | 82 | 192 | 5.0 | 23.0 | 0.00 | 0.00 | 0.00 | 35 | 1004.2 |
| 20260505180010 | 82 | 209 | 7.0 | 14.0 | 0.00 | 0.00 | 0.00 | 37 | 1004.3 |
| 20260505175510 | 82 | 205 | 6.0 | 11.0 | 0.00 | 0.00 | 0.00 | 36 | 1004.4 |
| 20260505175010 | 82 | 208 | 6.0 | 11.0 | 0.00 | 0.00 | 0.00 | 36 | 1004.5 |
| 20260505174507 | 82 | 200 | 6.0 | 11.0 | 0.00 | 0.00 | 0.00 | 37 | 1004.6 |
| 20260505174006 | 81 | 172 | 5.0 | 13.0 | 0.00 | 0.00 | 0.00 | 37 | 1004.5 |
| 20260505173505 | 80 | 271 | 3.0 | 13.0 | 0.00 | 0.00 | 0.00 | 38 | 1004.7 |
| 20260505173005 | 81 | 252 | 6.0 | 11.0 | 0.00 | 0.00 | 0.00 | 38 | 1004.7 |
| 20260505172507 | 80 | 182 | 4.0 | 11.0 | 0.00 | 0.00 | 0.00 | 38 | 1004.9 |
| 20260505172003 | 80 | 182 | 6.0 | 13.0 | 0.00 | 0.00 | 0.00 | 39 | 1005.0 |
| 20260505171503 | 81 | 270 | 4.0 | 11.0 | 0.00 | 0.00 | 0.00 | 38 | 1005.1 |
| 20260505171002 | 80 | 240 | 4.0 | 12.0 | 0.00 | 0.00 | 0.00 | 39 | 1005.0 |
| 20260505170600 | 79 | 234 | 2.0 | 12.0 | 0.00 | 0.00 | 0.00 | 40 | 1005.1 |
| 20260505170058 | 79 | 140 | 4.0 | 9.0 | 0.00 | 0.00 | 0.00 | 39 | 1005.2 |
| 20260505165557 | 79 | 130 | 3.0 | 10.0 | 0.00 | 0.00 | 0.00 | 40 | 1005.5 |
| 20260505165056 | 79 | 200 | 5.0 | 13.0 | 0.00 | 0.00 | 0.00 | 42 | 1005.6 |
| 20260505164602 | 78 | 205 | 8.0 | 13.0 | 0.00 | 0.00 | 0.00 | 39 | 1005.7 |
| 20260505164055 | 78 | 226 | 5.0 | 13.0 | 0.00 | 0.00 | 0.00 | 39 | 1005.8 |
| 20260505163554 | 78 | 210 | 5.0 | 14.0 | 0.00 | 0.00 | 0.00 | 44 | 1005.8 |
| 20260505163053 | 78 | 165 | 7.0 | 14.0 | 0.00 | 0.00 | 0.00 | 40 | 1006.1 |
| 20260505162551 | 78 | 252 | 4.0 | 15.0 | 0.00 | 0.00 | 0.00 | 42 | 1006.3 |
| 20260505162049 | 77 | 189 | 5.0 | 15.0 | 0.00 | 0.00 | 0.00 | 42 | 1006.3 |
| 20260505161555 | 75 | 203 | 4.0 | 12.0 | 0.00 | 0.00 | 0.00 | 42 | 1006.4 |
| 20260505161048 | 76 | 175 | 1.0 | 11.0 | 0.00 | 0.00 | 0.00 | 43 | 1006.5 |
| 20260505160550 | 76 | 232 | 4.0 | 11.0 | 0.00 | 0.00 | 0.00 | 42 | 1006.7 |
| 20260505153045 | 74 | 252 | 5.0 | 10.0 | 0.00 | 0.00 | 0.00 | 42 | 1007.0 |
| 20260505152541 | 74 | 328 | 5.0 | 10.0 | 0.00 | 0.00 | 0.00 | 45 | 1007.2 |
| 20260505152037 | 73 | 191 | 3.0 | 10.0 | 0.00 | 0.00 | 0.00 | 44 | 1007.2 |
| 20260505151537 | 72 | 217 | 4.0 | 10.0 | 0.00 | 0.00 | 0.00 | 44 | 1007.4 |
| 20260505151039 | 73 | 194 | 2.0 | 10.0 | 0.00 | 0.00 | 0.00 | 45 | 1007.5 |
| 20260505150536 | 72 | 211 | 5.0 | 13.0 | 0.00 | 0.00 | 0.00 | 44 | 1007.6 |
| 20260505140526 | 69 | 254 | 5.0 | 10.0 | 0.00 | 0.00 | 0.00 | 49 | 1007.2 |
| 20260505125011 | 63 | 263 | 1.0 | 4.0 | 0.00 | 0.00 | 0.00 | 55 | 1008.3 |
| 20260505124510 | 63 | 112 | 1.0 | 5.0 | 0.00 | 0.00 | 0.00 | 55 | 1007.9 |
| 20260505124008 | 62 | 172 | 1.0 | 5.0 | 0.00 | 0.00 | 0.00 | 57 | 1007.8 |
| 20260505123506 | 62 | 134 | 0.0 | 6.0 | 0.00 | 0.00 | 0.00 | 56 | 1007.7 |
| 20260505123010 | 62 | 257 | 0.0 | 6.0 | 0.00 | 0.00 | 0.00 | 57 | 1007.8 |
| 20260505122504 | 61 | 207 | 0.0 | 6.0 | 0.00 | 0.00 | 0.00 | 57 | 1007.8 |
| 20260505122005 | 61 | 171 | 2.0 | 6.0 | 0.00 | 0.00 | 0.00 | 58 | 1007.9 |
| 20260505121503 | 61 | 222 | 0.0 | 6.0 | 0.00 | 0.00 | 0.00 | 59 | 1008.0 |
| 20260505121100 | 60 | 213 | 1.0 | 6.0 | 0.00 | 0.00 | 0.00 | 59 | 1008.0 |
| 20260505120558 | 60 | 148 | 1.0 | 6.0 | 0.00 | 0.00 | 0.00 | 60 | 1008.0 |
| 20260505120105 | 59 | 149 | 2.0 | 4.0 | 0.00 | 0.00 | 0.00 | 60 | 1008.0 |
| 20260505115555 | 59 | 186 | 0.0 | 4.0 | 0.00 | 0.00 | 0.00 | 62 | 1008.1 |
| 20260505115055 | 59 | 146 | 0.0 | 6.0 | 0.00 | 0.00 | 0.00 | 63 | 1008.2 |
| 20260505114555 | 59 | 161 | 2.0 | 6.0 | 0.00 | 0.00 | 0.00 | 61 | 1008.1 |
| 20260505114054 | 58 | 172 | 0.0 | 5.0 | 0.00 | 0.00 | 0.00 | 66 | 1008.2 |
| 20260505113551 | 58 | 202 | 3.0 | 6.0 | 0.00 | 0.00 | 0.00 | 64 | 1008.3 |
| 20260505113109 | 57 | 200 | 1.0 | 6.0 | 0.00 | 0.00 | 0.00 | 67 | 1008.3 |
| 20260505112550 | 55 | 143 | 1.0 | 3.0 | 0.00 | 0.00 | 0.00 | 70 | 1008.3 |
| 20260505112047 | 54 | 310 | 0.0 | 6.0 | 0.00 | 0.00 | 0.00 | 74 | 1008.4 |
| 20260505111648 | 53 | 121 | 2.0 | 6.0 | 0.00 | 0.00 | 0.00 | 75 | 1008.4 |
| 20260505111048 | 52 | 138 | 0.0 | 2.0 | 0.00 | 0.00 | 0.00 | 79 | 1008.4 |
| 20260505110544 | 50 | 80 | 0.0 | 2.0 | 0.00 | 0.00 | 0.00 | 81 | 1008.1 |
| 20260505102038 | 44 | 114 | 0.0 | 1.0 | 0.00 | 0.00 | 0.00 | 88 | 1008.4 |
| 20260505101539 | 44 | 114 | 0.0 | 2.0 | 0.00 | 0.00 | 0.00 | 88 | 1008.4 |
| 20260505101041 | 44 | 114 | 0.0 | 2.0 | 0.00 | 0.00 | 0.00 | 88 | 1008.4 |
| 20260505100538 | 44 | 114 | 0.0 | 2.0 | 0.00 | 0.00 | 0.00 | 89 | 1008.4 |
| 20260505100035 | 43 | 114 | 0.0 | 1.0 | 0.00 | 0.00 | 0.00 | 89 | 1008.3 |
| 20260505095534 | 43 | 186 | 0.0 | 2.0 | 0.00 | 0.00 | 0.00 | 89 | 1008.3 |
| 20260505095034 | 44 | 186 | 0.0 | 2.0 | 0.00 | 0.00 | 0.00 | 89 | 1008.3 |
| 20260505094534 | 44 | 186 | 0.0 | 2.0 | 0.00 | 0.00 | 0.00 | 89 | 1008.3 |
| 20260505094034 | 43 | 186 | 0.0 | 0.0 | 0.00 | 0.00 | 0.00 | 89 | 1008.3 |
| 20260505093532 | 44 | 186 | 0.0 | 0.0 | 0.00 | 0.00 | 0.00 | 89 | 1008.3 |
| 20260505093032 | 44 | 186 | 0.0 | 0.0 | 0.00 | 0.00 | 0.00 | 89 | 1008.3 |
| 20260505092531 | 44 | 186 | 0.0 | 0.0 | 0.00 | 0.00 | 0.00 | 89 | 1008.3 |
| 20260505092031 | 44 | 186 | 0.0 | 0.0 | 0.00 | 0.00 | 0.00 | 89 | 1008.3 |
| 20260505091530 | 44 | 186 | 0.0 | 0.0 | 0.00 | 0.00 | 0.00 | 89 | 1008.4 |
| 20260505091030 | 44 | 186 | 0.0 | 0.0 | 0.00 | 0.00 | 0.00 | 88 | 1008.4 |
| 20260505090530 | 44 | 186 | 0.0 | 0.0 | 0.00 | 0.00 | 0.00 | 88 | 1008.4 |
| 20260505090029 | 44 | 186 | 0.0 | 0.0 | 0.00 | 0.00 | 0.00 | 88 | 1008.3 |
| 20260505085530 | 44 | 186 | 0.0 | 0.0 | 0.00 | 0.00 | 0.00 | 88 | 1008.4 |
| 20260505085027 | 44 | 186 | 0.0 | 0.0 | 0.00 | 0.00 | 0.00 | 87 | 1008.3 |
| 20260505084542 | 44 | 198 | 0.0 | 2.0 | 0.00 | 0.00 | 0.00 | 87 | 1008.4 |
| 20260505084026 | 45 | 198 | 0.0 | 2.0 | 0.00 | 0.00 | 0.00 | 87 | 1008.4 |
| 20260505083525 | 45 | 198 | 0.0 | 1.0 | 0.00 | 0.00 | 0.00 | 86 | 1008.5 |
| 20260505083125 | 45 | 227 | 0.0 | 1.0 | 0.00 | 0.00 | 0.00 | 86 | 1008.6 |
| 20260505082524 | 45 | 227 | 0.0 | 1.0 | 0.00 | 0.00 | 0.00 | 86 | 1008.6 |
| 20260505082024 | 45 | 174 | 0.0 | 2.0 | 0.00 | 0.00 | 0.00 | 86 | 1008.7 |
| 20260505081523 | 45 | 90 | 0.0 | 2.0 | 0.00 | 0.00 | 0.00 | 86 | 1008.7 |
| 20260505081025 | 45 | 216 | 0.0 | 0.0 | 0.00 | 0.00 | 0.00 | 86 | 1008.7 |
| 20260505080522 | 45 | 216 | 0.0 | 1.0 | 0.00 | 0.00 | 0.00 | 85 | 1008.7 |
| 20260505080023 | 46 | 216 | 0.0 | 1.0 | 0.00 | 0.00 | 0.00 | 85 | 1008.7 |
| 20260505075522 | 46 | 134 | 0.0 | 2.0 | 0.00 | 0.00 | 0.00 | 85 | 1008.7 |
| 20260505075021 | 46 | 205 | 0.0 | 2.0 | 0.00 | 0.00 | 0.00 | 85 | 1008.6 |
| 20260505074521 | 45 | 184 | 0.0 | 1.0 | 0.00 | 0.00 | 0.00 | 84 | 1008.6 |
| 20260505074022 | 45 | 225 | 0.0 | 0.0 | 0.00 | 0.00 | 0.00 | 84 | 1008.7 |
| 20260505073520 | 46 | 225 | 0.0 | 0.0 | 0.00 | 0.00 | 0.00 | 83 | 1008.7 |
| 20260505073019 | 46 | 225 | 0.0 | 0.0 | 0.00 | 0.00 | 0.00 | 83 | 1008.6 |
| 20260505072518 | 46 | 225 | 0.0 | 0.0 | 0.00 | 0.00 | 0.00 | 82 | 1008.6 |
| 20260505072021 | 46 | 225 | 0.0 | 2.0 | 0.00 | 0.00 | 0.00 | 82 | 1008.6 |
| 20260505071519 | 47 | 225 | 0.0 | 2.0 | 0.00 | 0.00 | 0.00 | 81 | 1008.6 |
| 20260505071015 | 47 | 213 | 0.0 | 2.0 | 0.00 | 0.00 | 0.00 | 80 | 1008.6 |
| 20260505070519 | 47 | 214 | 0.0 | 2.0 | 0.00 | 0.00 | 0.00 | 80 | 1008.6 |
| 20260505070014 | 47 | 253 | 0.0 | 2.0 | 0.00 | 0.00 | 0.00 | 79 | 1008.7 |
| 20260505065516 | 48 | 253 | 0.0 | 2.0 | 0.00 | 0.00 | 0.00 | 78 | 1008.7 |
| 20260505065012 | 48 | 253 | 0.0 | 1.0 | 0.00 | 0.00 | 0.00 | 78 | 1008.6 |
| 20260505064512 | 48 | 253 | 0.0 | 0.0 | 0.00 | 0.00 | 0.00 | 78 | 1008.7 |
| 20260505064017 | 48 | 253 | 0.0 | 0.0 | 0.00 | 0.00 | 0.00 | 78 | 1008.7 |
| 20260505063510 | 48 | 253 | 0.0 | 1.0 | 0.00 | 0.00 | 0.00 | 77 | 1008.7 |
| 20260505063010 | 49 | 253 | 0.0 | 0.0 | 0.00 | 0.00 | 0.00 | 76 | 1008.6 |
| 20260505062509 | 49 | 253 | 0.0 | 1.0 | 0.00 | 0.00 | 0.00 | 76 | 1008.6 |
| 20260505062010 | 49 | 253 | 0.0 | 1.0 | 0.00 | 0.00 | 0.00 | 75 | 1008.6 |
| 20260505061512 | 49 | 252 | 0.0 | 0.0 | 0.00 | 0.00 | 0.00 | 75 | 1008.6 |
| 20260505061009 | 50 | 252 | 0.0 | 0.0 | 0.00 | 0.00 | 0.00 | 74 | 1008.7 |
| 20260505060508 | 50 | 252 | 0.0 | 0.0 | 0.00 | 0.00 | 0.00 | 73 | 1008.7 |
| 20260505060009 | 51 | 252 | 0.0 | 2.0 | 0.00 | 0.00 | 0.00 | 72 | 1008.7 |
| 20260505055509 | 51 | 252 | 0.0 | 2.0 | 0.00 | 0.00 | 0.00 | 71 | 1008.6 |
| 20260505055008 | 52 | 265 | 0.0 | 2.0 | 0.00 | 0.00 | 0.00 | 70 | 1008.5 |
| 20260505054508 | 52 | 265 | 0.0 | 2.0 | 0.00 | 0.00 | 0.00 | 68 | 1008.6 |
| 20260505054011 | 53 | 265 | 0.0 | 2.0 | 0.00 | 0.00 | 0.00 | 67 | 1008.6 |
| 20260505053507 | 53 | 265 | 0.0 | 2.0 | 0.00 | 0.00 | 0.00 | 65 | 1008.7 |
| 20260505053006 | 54 | 265 | 0.0 | 1.0 | 0.00 | 0.00 | 0.00 | 65 | 1008.7 |
| 20260505052506 | 54 | 323 | 0.0 | 2.0 | 0.00 | 0.00 | 0.00 | 64 | 1008.7 |
| 20260505052005 | 54 | 323 | 0.0 | 2.0 | 0.00 | 0.00 | 0.00 | 64 | 1008.6 |
| 20260505051510 | 54 | 270 | 0.0 | 2.0 | 0.00 | 0.00 | 0.00 | 64 | 1008.7 |
| 20260505051004 | 54 | 223 | 0.0 | 5.0 | 0.00 | 0.00 | 0.00 | 64 | 1008.6 |
| 20260505050506 | 54 | 200 | 0.0 | 5.0 | 0.00 | 0.00 | 0.00 | 65 | 1008.6 |
| 20260505041552 | 49 | 235 | 2.0 | 6.0 | 0.00 | 0.00 | 0.00 | 76 | 1008.1 |
| 20260505041053 | 49 | 241 | 1.0 | 5.0 | 0.00 | 0.00 | 0.00 | 78 | 1008.2 |
| 20260505040554 | 49 | 196 | 1.0 | 5.0 | 0.00 | 0.00 | 0.00 | 79 | 1008.0 |
| 20260505040048 | 48 | 242 | 1.0 | 4.0 | 0.00 | 0.00 | 0.00 | 80 | 1007.9 |
| 20260505035551 | 48 | 230 | 0.0 | 5.0 | 0.00 | 0.00 | 0.00 | 82 | 1007.8 |
| 20260505035048 | 48 | 213 | 1.0 | 5.0 | 0.00 | 0.00 | 0.00 | 82 | 1007.8 |
| 20260505034610 | 49 | 66 | 0.0 | 1.0 | 0.00 | 0.00 | 0.00 | 82 | 1007.8 |
| 20260505034048 | 49 | 66 | 0.0 | 0.0 | 0.00 | 0.00 | 0.00 | 82 | 1007.7 |
| 20260505033547 | 49 | 66 | 0.0 | 0.0 | 0.00 | 0.00 | 0.00 | 81 | 1007.6 |
| 20260505033052 | 49 | 66 | 0.0 | 0.0 | 0.00 | 0.00 | 0.00 | 80 | 1007.6 |
| 20260505032547 | 50 | 66 | 0.0 | 0.0 | 0.00 | 0.00 | 0.00 | 80 | 1007.6 |
| 20260505032046 | 50 | 66 | 0.0 | 0.0 | 0.00 | 0.00 | 0.00 | 79 | 1007.7 |
| 20260505031546 | 50 | 66 | 0.0 | 0.0 | 0.00 | 0.00 | 0.00 | 79 | 1007.5 |
| 20260505031046 | 51 | 66 | 0.0 | 0.0 | 0.00 | 0.00 | 0.00 | 78 | 1007.5 |
| 20260505030546 | 51 | 66 | 0.0 | 0.0 | 0.00 | 0.00 | 0.00 | 76 | 1007.6 |
| 20260505030046 | 52 | 66 | 0.0 | 2.0 | 0.00 | 0.00 | 0.00 | 75 | 1007.6 |
| 20260505025546 | 52 | 66 | 0.0 | 2.0 | 0.00 | 0.00 | 0.00 | 74 | 1007.7 |
| 20260505025045 | 52 | 66 | 0.0 | 2.0 | 0.00 | 0.00 | 0.00 | 75 | 1007.6 |
| 20260505024547 | 51 | 68 | 1.0 | 2.0 | 0.00 | 0.00 | 0.00 | 75 | 1007.6 |
| 20260505024045 | 51 | 80 | 0.0 | 1.0 | 0.00 | 0.00 | 0.00 | 77 | 1007.6 |
| 20260505023545 | 51 | 130 | 0.0 | 1.0 | 0.00 | 0.00 | 0.00 | 77 | 1007.6 |
| 20260505023048 | 52 | 72 | 0.0 | 2.0 | 0.00 | 0.00 | 0.00 | 76 | 1007.6 |
| 20260505022548 | 51 | 176 | 0.0 | 2.0 | 0.00 | 0.00 | 0.00 | 79 | 1007.6 |
| 20260505022045 | 51 | 184 | 0.0 | 1.0 | 0.00 | 0.00 | 0.00 | 79 | 1007.6 |
| 20260505021545 | 51 | 200 | 0.0 | 0.0 | 0.00 | 0.00 | 0.00 | 80 | 1007.7 |
| 20260505021044 | 51 | 256 | 0.0 | 0.0 | 0.00 | 0.00 | 0.00 | 79 | 1007.6 |
| 20260505020544 | 52 | 256 | 0.0 | 0.0 | 0.00 | 0.00 | 0.00 | 79 | 1007.6 |
| 20260505020044 | 52 | 256 | 0.0 | 0.0 | 0.00 | 0.00 | 0.00 | 79 | 1007.6 |
| 20260505015544 | 52 | 256 | 0.0 | 0.0 | 0.00 | 0.00 | 0.00 | 80 | 1007.5 |
| 20260505015045 | 52 | 256 | 0.0 | 0.0 | 0.00 | 0.00 | 0.00 | 80 | 1007.5 |
| 20260505014544 | 52 | 256 | 0.0 | 0.0 | 0.00 | 0.00 | 0.00 | 80 | 1007.4 |
| 20260505014044 | 52 | 256 | 0.0 | 0.0 | 0.00 | 0.00 | 0.00 | 79 | 1007.3 |
| 20260505013543 | 52 | 256 | 0.0 | 0.0 | 0.00 | 0.00 | 0.00 | 79 | 1007.3 |
| 20260505013043 | 52 | 256 | 0.0 | 0.0 | 0.00 | 0.00 | 0.00 | 78 | 1007.3 |
| 20260505012542 | 52 | 256 | 0.0 | 0.0 | 0.00 | 0.00 | 0.00 | 78 | 1007.2 |
| 20260505012042 | 52 | 256 | 0.0 | 0.0 | 0.00 | 0.00 | 0.00 | 78 | 1007.2 |
| 20260505011603 | 52 | 256 | 0.0 | 1.0 | 0.00 | 0.00 | 0.00 | 78 | 1007.2 |
| 20260505011043 | 53 | 256 | 0.0 | 2.0 | 0.00 | 0.00 | 0.00 | 77 | 1007.1 |
| 20260505010542 | 53 | 249 | 0.0 | 1.0 | 0.00 | 0.00 | 0.00 | 77 | 1007.0 |
| 20260505010046 | 53 | 246 | 0.0 | 1.0 | 0.00 | 0.00 | 0.00 | 76 | 1007.0 |
| 20260505005542 | 53 | 211 | 0.0 | 0.0 | 0.00 | 0.00 | 0.00 | 76 | 1006.9 |
| 20260505005041 | 53 | 210 | 0.0 | 0.0 | 0.00 | 0.00 | 0.00 | 75 | 1006.8 |
| 20260505004541 | 53 | 210 | 0.0 | 0.0 | 0.00 | 0.00 | 0.00 | 75 | 1006.8 |
| 20260505004040 | 53 | 202 | 0.0 | 0.0 | 0.00 | 0.00 | 0.00 | 74 | 1006.7 |
| 20260505003540 | 54 | 202 | 0.0 | 0.0 | 0.00 | 0.00 | 0.00 | 73 | 1006.5 |
| 20260505003040 | 54 | 202 | 0.0 | 2.0 | 0.00 | 0.00 | 0.00 | 73 | 1006.5 |
| 20260505002541 | 54 | 202 | 0.0 | 2.0 | 0.00 | 0.00 | 0.00 | 72 | 1006.5 |
| 20260505002040 | 55 | 202 | 0.0 | 2.0 | 0.00 | 0.00 | 0.00 | 71 | 1006.4 |
| 20260505001540 | 55 | 200 | 0.0 | 0.0 | 0.00 | 0.00 | 0.00 | 70 | 1006.4 |
| 20260505001039 | 56 | 200 | 0.0 | 0.0 | 0.00 | 0.00 | 0.00 | 69 | 1006.3 |
| 20260505000539 | 56 | 200 | 0.0 | 0.0 | 0.00 | 0.00 | 0.00 | 68 | 1006.2 |
| 20260505000050 | 57 | 200 | 0.0 | 2.0 | 0.00 | 0.00 | 0.00 | 67 | 1006.1 |
| 20260504235539 | 58 | 200 | 0.0 | 0.0 | 0.00 | 0.00 | 0.00 | 66 | 1006.1 |
| 20260504235039 | 58 | 195 | 0.0 | 2.0 | 0.00 | 0.00 | 0.00 | 64 | 1006.0 |
| 20260504234538 | 59 | 195 | 0.0 | 2.0 | 0.00 | 0.00 | 0.00 | 63 | 1005.9 |
| 20260504234038 | 60 | 194 | 0.0 | 2.0 | 0.00 | 0.00 | 0.00 | 62 | 1005.9 |
| 20260504233539 | 61 | 169 | 0.0 | 2.0 | 0.00 | 0.00 | 0.00 | 60 | 1005.8 |
| 20260504233051 | 62 | 169 | 0.0 | 2.0 | 0.00 | 0.00 | 0.00 | 58 | 1005.8 |
| 20260504232537 | 63 | 169 | 0.0 | 2.0 | 0.00 | 0.00 | 0.00 | 58 | 1005.9 |
| 20260504232036 | 63 | 169 | 0.0 | 0.0 | 0.00 | 0.00 | 0.00 | 52 | 1005.9 |
| 20260504231537 | 64 | 169 | 0.0 | 2.0 | 0.00 | 0.00 | 0.00 | 49 | 1005.8 |
| 20260504231037 | 65 | 169 | 0.0 | 2.0 | 0.00 | 0.00 | 0.00 | 48 | 1005.7 |
| 20260504230536 | 65 | 169 | 0.0 | 1.0 | 0.00 | 0.00 | 0.00 | 49 | 1005.7 |
| 20260504230035 | 65 | 169 | 0.0 | 1.0 | 0.00 | 0.00 | 0.00 | 46 | 1005.7 |
| 20260504225636 | 65 | 178 | 0.0 | 2.0 | 0.00 | 0.00 | 0.00 | 45 | 1005.5 |
| 20260504225034 | 66 | 151 | 0.0 | 2.0 | 0.00 | 0.00 | 0.00 | 44 | 1005.4 |
| 20260504224541 | 66 | 250 | 0.0 | 2.0 | 0.00 | 0.00 | 0.00 | 42 | 1005.3 |
| 20260504224033 | 67 | 252 | 0.0 | 2.0 | 0.00 | 0.00 | 0.00 | 42 | 1005.2 |
| 20260504223533 | 67 | 244 | 0.0 | 2.0 | 0.00 | 0.00 | 0.00 | 40 | 1005.3 |
| 20260504223033 | 67 | 280 | 0.0 | 1.0 | 0.00 | 0.00 | 0.00 | 40 | 1005.3 |
| 20260504222532 | 67 | 302 | 0.0 | 2.0 | 0.00 | 0.00 | 0.00 | 39 | 1005.4 |
| 20260504222031 | 67 | 239 | 0.0 | 2.0 | 0.00 | 0.00 | 0.00 | 39 | 1005.2 |
| 20260504221530 | 67 | 180 | 0.0 | 2.0 | 0.00 | 0.00 | 0.00 | 40 | 1005.3 |
| 20260504221030 | 67 | 136 | 0.0 | 2.0 | 0.00 | 0.00 | 0.00 | 41 | 1005.4 |
| 20260504220530 | 67 | 240 | 0.0 | 2.0 | 0.00 | 0.00 | 0.00 | 39 | 1005.4 |
| 20260504220030 | 67 | 144 | 0.0 | 2.0 | 0.00 | 0.00 | 0.00 | 40 | 1005.4 |
| 20260504215530 | 67 | 269 | 0.0 | 2.0 | 0.00 | 0.00 | 0.00 | 40 | 1005.5 |
| 20260504215028 | 67 | 231 | 0.0 | 4.0 | 0.00 | 0.00 | 0.00 | 41 | 1005.4 |
| 20260504214529 | 67 | 232 | 0.0 | 4.0 | 0.00 | 0.00 | 0.00 | 42 | 1005.5 |
| 20260504214028 | 66 | 202 | 0.0 | 2.0 | 0.00 | 0.00 | 0.00 | 42 | 1005.5 |
| 20260504213528 | 66 | 202 | 0.0 | 2.0 | 0.00 | 0.00 | 0.00 | 42 | 1005.5 |
| 20260504213033 | 66 | 202 | 0.0 | 2.0 | 0.00 | 0.00 | 0.00 | 44 | 1005.5 |
| 20260504212528 | 66 | 202 | 0.0 | 2.0 | 0.00 | 0.00 | 0.00 | 43 | 1005.5 |
| 20260504212027 | 66 | 202 | 1.0 | 2.0 | 0.00 | 0.00 | 0.00 | 41 | 1005.5 |
| 20260504211527 | 67 | 202 | 0.0 | 4.0 | 0.00 | 0.00 | 0.00 | 43 | 1005.5 |
| 20260504211028 | 67 | 201 | 0.0 | 7.0 | 0.00 | 0.00 | 0.00 | 41 | 1005.5 |
| 20260504210526 | 67 | 201 | 1.0 | 1.0 | 0.00 | 0.00 | 0.00 | 41 | 1005.5 |
| 20260504210026 | 67 | 248 | 0.0 | 5.0 | 0.00 | 0.00 | 0.00 | 41 | 1005.5 |
| 20260504205526 | 68 | 248 | 2.0 | 6.0 | 0.00 | 0.00 | 0.00 | 40 | 1005.5 |
| 20260504205025 | 67 | 259 | 3.0 | 9.0 | 0.00 | 0.00 | 0.00 | 40 | 1005.5 |
| 20260504204526 | 67 | 226 | 2.0 | 9.0 | 0.00 | 0.00 | 0.00 | 40 | 1005.5 |
| 20260504204025 | 68 | 219 | 1.0 | 8.0 | 0.00 | 0.00 | 0.00 | 40 | 1005.5 |
| 20260504203525 | 68 | 263 | 2.0 | 8.0 | 0.00 | 0.00 | 0.00 | 41 | 1005.6 |
| 20260504203025 | 68 | 202 | 4.0 | 8.0 | 0.00 | 0.00 | 0.00 | 39 | 1005.6 |
| 20260504202527 | 68 | 258 | 3.0 | 9.0 | 0.00 | 0.00 | 0.00 | 40 | 1005.5 |
| 20260504202023 | 68 | 259 | 3.0 | 10.0 | 0.00 | 0.00 | 0.00 | 39 | 1005.6 |
| 20260504201522 | 69 | 251 | 4.0 | 8.0 | 0.00 | 0.00 | 0.00 | 41 | 1005.6 |